Location: Bacharowice
(49.9333°N, 19.5833°E)
Time: 08:29:41
(UTC+00:00)

ATLAS 2AS CENTAUR R/B - Pass Details

Date: 11 May 2021
Orbit: 949 x 1263 km, 63.7° (Epoch: 07 May)

Event Time Altitude Azimuth Distance (km) Brightness Sun altitude
Rises 21:24:12 0° 316° (NW) 4,106 6.9 -20.0°
Reaches altitude 10° 21:27:05 10° 313° (NW) 3,098 6.0 -20.2°
Maximum altitude 21:34:14 55° 238° (WSW) 1,313 3.0 -20.5°
Enters shadow 21:37:04 34° 180° (S) 1,697 3.2 -20.6°
